Wind_Speed
34 34 34 34 34 33 34 34 35 34 33 31 30 30 30 29 29 28 29 29 29 29 29 29 29 30 31 33 35 36 36 36 37 39 41 43 43 42 42 42 44 44 45 46
35 35 35 35 34 34 34 34 34 34 33 32 31 30 29 28 28 28 28 27 28 29 31 30 30 29 30 32 34 35 37 37 37 38 40 42 43 43 44 44 44 45 45 45
36 36 36 36 34 34 34 34 34 34 32 31 31 30 29 29 28 28 27 27 27 28 29 30 30 30 29 30 32 34 35 36 37 38 39 40 42 44 44 44 45 45 45 45
37 37 37 36 34 34 34 33 33 32 31 31 31 30 29 29 29 28 28 28 28 28 29 29 30 30 30 30 31 32 33 35 37 38 38 40 42 44 43 43 44 44 44 44
38 38 37 35 34 34 33 33 32 31 30 29 30 29 29 29 29 30 29 29 29 30 30 30 31 31 32 32 32 33 33 34 36 37 38 40 41 43 43 43 43 43 44 44
38 38 38 35 34 33 33 32 31 31 30 30 29 29 28 28 29 29 30 30 30 31 31 31 32 32 32 33 33 33 33 34 35 37 38 39 40 41 42 42 42 42 42 43
36 37 36 34 33 32 32 32 31 31 30 29 29 29 29 28 28 29 29 30 30 31 31 32 32 32 32 32 33 33 33 34 35 36 37 38 38 39 40 40 41 41 42 42
36 35 34 32 32 32 31 31 31 30 30 30 29 29 29 29 29 29 29 29 30 30 30 31 32 32 32 32 32 33 33 34 35 36 36 37 37 38 38 39 41 41 41 42
34 33 32 32 32 31 31 31 31 31 30 30 29 29 29 29 30 30 30 30 30 29 29 30 30 31 31 32 32 33 34 34 34 35 36 36 37 37 38 39 40 41 42 42
33 31 31 31 31 31 31 31 31 31 30 30 30 29 29 29 30 30 30 30 30 30 29 30 30 30 31 31 32 32 33 34 35 35 36 37 37 37 37 38 40 40 42 42
32 31 31 31 31 31 31 32 31 31 31 31 30 30 30 30 30 30 30 30 30 30 30 30 30 30 31 31 32 33 33 34 35 35 35 36 37 37 37 38 38 39 40 40
33 32 32 31 32 31 31 31 31 31 31 31 31 30 30 30 30 30 30 30 30 30 30 30 30 30 31 31 32 33 33 33 34 34 34 34 35 35 36 37 38 38 38 39
32 32 32 31 31 31 31 31 31 31 31 31 31 31 31 30 30 30 29 30 30 30 30 30 30 30 31 31 32 32 32 32 32 33 33 34 35 34 35 36 37 37 38 37
32 31 31 31 30 31 31 31 32 32 31 31 31 31 31 30 30 30 30 30 30 31 30 30 30 30 31 31 31 31 30 30 31 31 32 32 34 34 35 35 36 36 37 37
31 31 31 31 31 31 32 32 32 32 31 31 30 30 30 30 31 31 30 30 30 30 30 30 30 30 30 30 29 29 29 29 30 30 31 31 32 33 33 33 34 35 36 37
30 30 30 30 31 31 32 31 31 31 31 31 30 30 30 31 31 31 30 30 29 29 29 29 29 29 29 28 28 28 28 28 29 29 30 30 31 31 31 32 32 33 34 35
29 29 30 30 31 31 31 31 31 31 30 31 31 31 30 30 30 30 30 29 29 29 28 28 28 29 28 28 28 28 28 28 28 29 29 29 29 29 30 30 30 31 32 32
29 29 30 30 30 30 31 30 30 30 30 30 30 30 29 29 30 30 29 29 29 29 29 29 28 28 28 28 28 28 29 28 28 28 27 28 28 28 29 29 30 31 31 32
29 29 29 29 29 29 29 29 30 30 30 29 29 29 29 29 29 29 29 29 29 29 29 29 29 29 29 29 29 29 29 29 28 28 28 27 28 28 28 29 29 30 30 30
28 28 28 28 28 28 29 29 29 29 29 29 29 29 29 29 28 28 28 28 29 29 28 29 29 29 29 29 29 29 29 28 28 28 28 28 28 28 28 28 29 29 30 30
27 28 27 27 28 28 29 29 28 28 28 28 28 29 29 28 28 28 28 28 28 28 28 29 29 29 29 29 29 29 28 28 28 28 28 28 28 28 28 29 29 29 29 29
27 27 28 28 28 29 28 28 28 28 28 28 28 28 28 28 28 28 28 28 28 28 28 28 28 28 28 28 28 28 28 28 28 28 28 28 28 28 28 28 28 28 28 28
28 28 29 29 29 28 28 27 27 27 28 28 28 28 28 28 28 28 28 28 28 28 27 27 27 27 27 27 27 27 27 28 28 28 28 28 28 27 27 27 27 27 27 27
28 28 28 28 28 28 27 27 27 27 28 28 28 28 28 28 28 28 28 27 27 26 26 27 27 27 27 26 26 26 26 26 26 26 26 26 26 26 26 26 26 27 27 26
27 27 27 27 26 26 26 27 27 27 27 27 27 27 27 27 27 27 26 26 25 25 25 26 26 26 25 25 25 24 24 24 24 23 23 23 23 23 24 24 25 25 25 25
27 27 27 27 26 26 26 26 26 27 26 26 26 26 26 26 26 26 25 25 25 25 25 25 25 24 24 24 23 22 22 22 21 22 22 21 21 21 21 22 22 22 22 22
27 27 27 27 27 27 27 27 27 26 26 26 26 25 25 25 25 25 25 25 25 25 25 25 24 24 23 23 23 22 21 21 20 20 20 20 19 19 20 20 20 21 21 22
Wind_Direction
299 299 298 298 299 298 298 298 299 300 298 297 294 294 292 289 290 291 288 284 280 278 277 278 278 276 271 264 260 258 255 255 256 254 252 250 248 249 249 249 249 248 248 248
297 297 297 297 298 298 297 297 297 297 297 295 292 292 291 289 289 291 290 286 282 280 277 277 279 279 276 269 264 260 258 258 258 257 254 252 250 250 250 250 249 248 248 249
298 296 296 297 299 298 298 298 298 297 297 294 290 289 289 287 288 289 289 286 283 281 279 277 277 277 276 273 268 264 262 260 260 259 258 256 254 252 253 252 251 249 249 250
298 297 296 298 298 298 298 298 299 299 298 296 292 288 287 286 286 288 289 287 283 279 277 277 276 275 275 275 272 268 266 263 261 261 260 259 257 254 253 252 252 252 250 250
298 298 297 297 298 298 298 297 298 298 297 296 294 288 285 285 286 287 288 288 286 283 280 278 277 275 274 274 274 272 269 267 263 263 262 261 259 257 255 254 253 252 250 250
297 297 298 300 298 298 299 298 298 298 297 296 294 290 286 286 286 286 286 286 286 284 281 278 278 277 276 274 273 273 272 270 267 266 264 262 259 257 256 255 254 252 252 251
297 296 297 299 298 297 297 299 299 298 297 296 294 292 289 288 287 288 288 287 286 285 283 279 278 278 277 275 273 273 273 271 268 266 264 262 260 258 257 255 254 253 253 252
297 296 298 297 295 294 295 297 299 299 298 297 295 292 291 289 288 287 287 287 287 286 283 281 278 278 277 276 274 273 272 271 269 267 264 263 261 260 258 257 255 254 254 254
297 296 296 295 294 293 294 295 296 297 297 296 295 294 293 291 289 288 287 286 286 286 286 284 281 279 278 277 276 275 273 271 269 267 265 264 263 263 262 259 257 254 254 255
296 296 295 294 293 293 293 294 294 294 294 295 295 295 294 293 291 289 287 286 284 284 285 285 284 282 280 278 277 277 275 272 270 269 268 266 264 264 264 261 258 256 256 255
294 295 293 292 293 294 294 293 292 291 291 292 294 294 294 294 293 291 289 287 285 285 285 286 285 284 281 280 279 278 276 274 272 272 270 267 266 265 264 262 260 258 257 255
294 294 293 292 291 293 293 293 292 291 291 292 293 294 294 294 293 292 290 289 287 286 286 285 285 285 283 281 280 279 277 275 273 272 270 269 267 266 264 262 260 258 257 256
292 292 292 293 292 292 292 292 293 292 292 292 292 293 292 292 292 292 291 290 289 288 287 287 286 285 285 284 282 280 278 276 273 271 269 267 267 266 265 263 262 261 259 257
292 292 291 291 291 292 293 293 293 293 292 292 292 292 291 290 290 291 291 291 290 290 288 288 287 286 286 285 284 282 279 277 274 272 270 268 267 267 265 264 263 261 259 258
292 291 291 291 291 292 293 293 293 292 291 292 292 292 292 291 290 290 291 291 291 291 290 289 287 286 287 286 285 283 281 279 277 274 271 270 269 268 266 264 262 260 259 258
292 292 292 293 293 293 293 293 293 292 290 291 292 292 292 292 291 290 290 290 290 290 290 290 288 287 286 286 284 284 283 282 280 277 274 272 271 269 267 265 263 262 261 258
292 291 292 292 293 294 294 293 292 291 290 290 291 292 292 292 292 291 290 290 290 290 289 290 290 288 286 285 284 284 284 283 282 280 276 274 272 270 268 266 265 264 262 260
294 294 294 294 293 294 294 294 293 293 292 292 292 292 292 292 293 292 291 290 289 289 289 289 289 288 286 285 284 285 285 284 283 281 279 276 274 272 270 268 267 266 264 262
297 297 297 296 295 295 295 296 295 295 294 293 294 294 293 293 293 293 291 290 289 289 289 288 288 288 287 285 285 284 284 284 283 281 279 278 277 275 272 270 269 268 266 264
299 299 299 299 298 297 297 296 296 295 295 294 295 295 294 293 293 292 292 291 291 291 290 289 289 289 288 287 285 284 284 284 283 281 280 279 278 276 274 273 271 270 267 264
302 302 301 301 300 300 299 297 296 295 295 295 295 295 295 294 294 293 292 292 292 292 292 291 290 289 288 287 285 284 283 283 282 281 280 279 278 276 274 274 273 271 268 265
303 303 302 302 301 301 300 298 297 296 296 296 296 296 295 294 294 294 294 294 294 294 293 293 292 291 290 289 287 285 284 283 282 281 279 279 278 276 275 274 273 271 269 266
306 304 303 303 302 302 301 300 299 298 297 296 296 295 295 295 296 296 296 296 295 294 293 293 294 293 292 291 290 288 286 284 282 281 280 279 278 277 275 274 273 271 269 267
309 307 306 305 304 303 303 302 301 300 299 298 297 297 297 297 297 297 297 296 295 293 293 294 295 295 294 293 292 291 289 286 284 283 282 281 279 276 275 274 273 270 269 268
310 309 308 307 306 305 304 304 303 303 302 301 300 299 299 298 298 297 297 296 295 294 295 295 295 295 295 294 293 292 291 288 285 284 283 283 280 278 277 276 275 272 269 268
310 309 309 308 308 307 307 306 306 306 305 304 302 301 301 301 300 299 298 296 295 295 295 295 295 294 294 294 294 294 292 290 288 287 286 285 282 279 279 279 276 273 271 269
311 310 310 310 309 309 309 308 308 307 307 306 304 303 302 301 301 300 300 298 297 297 296 296 295 293 293 293 293 293 292 292 291 289 287 286 284 281 281 281 278 274 272 270
Height
5606 5602 5599 5596 5593 5589 5585 5581 5577 5575 5572 5570 5566 5563 5560 5557 5555 5553 5551 5548 5546 5544 5543 5542 5541 5540 5540 5540 5540 5541 5542 5543 5545 5546 5548 5551 5555 5557 5560 5563 5566 5569 5573 5578
5598 5595 5591 5588 5586 5582 5577 5574 5570 5567 5565 5563 5558 5555 5553 5550 5548 5546 5544 5542 5539 5537 5536 5535 5534 5533 5532 5532 5532 5532 5533 5534 5535 5537 5538 5540 5543 5546 5548 5551 5554 5557 5561 5565
5588 5586 5582 5580 5579 5574 5570 5566 5563 5559 5558 5554 5551 5548 5546 5543 5541 5539 5537 5535 5533 5530 5529 5528 5527 5526 5525 5524 5524 5524 5524 5525 5525 5527 5528 5530 5532 5535 5537 5539 5542 5545 5550 5554
5578 5576 5573 5575 5569 5565 5561 5559 5555 5551 5548 5545 5542 5540 5538 5536 5534 5532 5530 5527 5525 5523 5522 5520 5519 5518 5517 5516 5516 5515 5515 5515 5516 5517 5518 5520 5522 5524 5526 5528 5531 5534 5537 5541
5569 5565 5563 5564 5560 5556 5552 5551 5547 5543 5540 5537 5534 5532 5531 5529 5526 5524 5522 5520 5517 5515 5514 5512 5511 5510 5509 5508 5507 5506 5506 5506 5507 5508 5509 5510 5511 5513 5515 5517 5519 5522 5526 5529
5560 5555 5553 5556 5551 5546 5544 5542 5539 5535 5533 5530 5527 5525 5524 5521 5519 5516 5514 5512 5509 5507 5506 5504 5503 5502 5501 5500 5499 5498 5498 5497 5497 5498 5499 5500 5501 5502 5504 5506 5508 5511 5514 5518
5551 5547 5545 5546 5542 5539 5537 5535 5531 5527 5524 5522 5519 5516 5515 5512 5510 5508 5506 5504 5501 5499 5497 5496 5495 5494 5492 5491 5490 5490 5489 5488 5488 5488 5489 5490 5491 5492 5494 5496 5498 5501 5504 5507
5543 5539 5540 5536 5533 5531 5528 5525 5522 5519 5517 5514 5511 5508 5506 5504 5501 5500 5498 5496 5493 5491 5489 5488 5486 5485 5484 5483 5482 5481 5480 5480 5479 5479 5479 5480 5481 5482 5484 5485 5488 5490 5493 5496
5535 5534 5531 5527 5524 5522 5519 5517 5514 5512 5509 5506 5503 5500 5498 5495 5493 5491 5489 5487 5485 5483 5481 5479 5477 5476 5475 5474 5473 5472 5471 5471 5470 5470 5470 5470 5471 5472 5474 5475 5477 5479 5482 5485
5526 5525 5522 5519 5516 5513 5511 5508 5506 5503 5501 5498 5495 5493 5490 5488 5485 5483 5481 5479 5477 5475 5473 5471 5469 5468 5466 5465 5464 5463 5462 5461 5461 5461 5461 5461 5462 5462 5463 5465 5466 5468 5471 5474
5518 5516 5513 5511 5508 5505 5502 5500 5497 5495 5493 5490 5488 5485 5483 5480 5477 5475 5472 5470 5468 5467 5465 5463 5461 5459 5457 5456 5455 5454 5453 5452 5451 5451 5451 5452 5452 5452 5453 5454 5455 5457 5460 5462
5509 5507 5504 5502 5499 5497 5494 5491 5489 5487 5484 5482 5479 5477 5474 5472 5469 5466 5464 5462 5460 5458 5456 5455 5452 5451 5449 5447 5446 5444 5443 5442 5441 5441 5441 5441 5442 5443 5443 5444 5445 5446 5448 5450
5500 5497 5495 5493 5490 5488 5485 5483 5480 5478 5476 5473 5471 5468 5466 5463 5461 5458 5456 5454 5452 5450 5448 5446 5444 5442 5440 5438 5436 5435 5434 5433 5432 5431 5431 5431 5432 5432 5433 5434 5434 5435 5437 5438
5491 5488 5486 5484 5481 5479 5477 5474 5472 5470 5467 5465 5462 5460 5457 5455 5452 5450 5448 5445 5443 5441 5439 5437 5435 5433 5431 5429 5427 5426 5424 5423 5422 5422 5422 5422 5422 5422 5423 5423 5424 5424 5425 5427
5482 5479 5477 5475 5473 5471 5468 5466 5464 5461 5459 5456 5454 5451 5448 5446 5444 5442 5439 5437 5435 5432 5430 5428 5426 5425 5422 5420 5419 5417 5416 5414 5413 5413 5412 5412 5411 5412 5412 5413 5413 5414 5415 5416
5473 5471 5468 5466 5464 5462 5459 5457 5455 5452 5450 5448 5445 5442 5440 5437 5435 5433 5431 5428 5426 5424 5422 5420 5418 5416 5414 5412 5410 5409 5407 5406 5405 5404 5403 5402 5402 5402 5402 5402 5403 5404 5404 5405
5465 5463 5460 5458 5456 5453 5451 5448 5446 5443 5441 5439 5436 5434 5431 5429 5427 5424 5422 5420 5418 5416 5414 5411 5409 5407 5406 5404 5402 5401 5399 5398 5396 5395 5394 5393 5393 5393 5392 5393 5393 5394 5394 5395
5457 5454 5452 5450 5447 5445 5442 5440 5437 5435 5432 5430 5428 5425 5423 5420 5418 5416 5413 5411 5409 5407 5405 5403 5401 5399 5397 5395 5393 5392 5390 5389 5388 5386 5385 5384 5384 5383 5383 5383 5384 5384 5384 5385
5449 5446 5444 5441 5439 5436 5434 5431 5429 5426 5424 5422 5419 5417 5414 5412 5410 5407 5405 5402 5400 5398 5396 5394 5392 5390 5388 5386 5385 5383 5381 5380 5378 5377 5376 5375 5375 5374 5374 5374 5374 5374 5374 5375
5442 5439 5436 5434 5431 5428 5426 5423 5421 5418 5416 5414 5411 5409 5406 5404 5401 5399 5396 5394 5391 5389 5387 5385 5383 5381 5379 5377 5375 5374 5372 5371 5369 5368 5367 5366 5366 5365 5364 5364 5364 5364 5364 5364
5435 5432 5429 5426 5424 5421 5418 5416 5413 5411 5408 5406 5403 5401 5398 5396 5393 5390 5388 5386 5383 5381 5378 5376 5374 5372 5370 5368 5366 5364 5363 5361 5360 5359 5358 5357 5356 5355 5355 5354 5354 5353 5353 5354
5428 5425 5422 5419 5416 5414 5411 5408 5405 5403 5400 5398 5395 5393 5390 5388 5385 5382 5379 5377 5375 5372 5370 5367 5365 5363 5361 5358 5357 5355 5353 5352 5350 5349 5348 5347 5346 5345 5345 5344 5344 5344 5344 5344
5421 5418 5415 5412 5409 5406 5403 5400 5398 5395 5392 5390 5387 5385 5382 5379 5377 5374 5372 5369 5366 5363 5361 5358 5356 5354 5351 5349 5348 5346 5344 5342 5341 5339 5338 5337 5336 5335 5335 5334 5334 5334 5334 5335
5414 5411 5408 5405 5401 5399 5396 5393 5390 5387 5384 5382 5379 5376 5374 5371 5368 5365 5363 5360 5357 5355 5352 5350 5347 5345 5343 5340 5339 5337 5335 5333 5331 5330 5328 5327 5327 5326 5325 5325 5325 5325 5325 5326
5408 5404 5401 5398 5395 5392 5389 5386 5383 5380 5377 5374 5371 5368 5365 5363 5360 5357 5354 5352 5349 5347 5344 5342 5339 5337 5334 5332 5330 5328 5326 5324 5323 5321 5320 5319 5318 5318 5317 5317 5317 5317 5317 5318
5401 5398 5394 5391 5388 5385 5382 5379 5376 5372 5369 5366 5363 5360 5358 5355 5352 5349 5346 5344 5342 5339 5337 5334 5332 5329 5327 5325 5322 5320 5318 5317 5315 5314 5313 5312 5311 5311 5310 5310 5310 5310 5310 5310
5395 5391 5388 5385 5381 5378 5375 5371 5368 5365 5362 5359 5356 5353 5350 5347 5344 5342 5339 5336 5334 5331 5329 5326 5324 5322 5320 5318 5316 5314 5312 5310 5309 5307 5306 5305 5305 5304 5303 5303 5303 5303 5303 5303